| time (UTC) | temp C | wind direction | speed KPH | gust KPH | rain 1hr cm | rain 24hr cm | rain mn cm | humidity % | barometer mb |
| 20260506035736 | -2 | 90 | 0.0 | 1.6 | 0.00 | 0.03 | 0.00 | 83 | 1012.1 |
| 20260506034835 | -3 | 91 | 0.0 | 1.6 | 0.00 | 0.03 | 0.00 | 84 | 1012.2 |
| 20260506033935 | -3 | 0 | 0.0 | 0.0 | 0.00 | 0.03 | 0.00 | 85 | 1012.1 |
| 20260506033036 | -4 | 0 | 0.0 | 0.0 | 0.00 | 0.03 | 0.00 | 85 | 1012.1 |
| 20260506032136 | -4 | 90 | 0.0 | 1.6 | 0.00 | 0.03 | 0.00 | 86 | 1011.9 |
| 20260506031449 | -5 | 90 | 0.0 | 1.6 | 0.00 | 0.03 | 0.00 | 86 | 1011.9 |
| 20260506030336 | -5 | 101 | 0.0 | 1.6 | 0.00 | 0.03 | 0.00 | 88 | 1011.9 |
| 20260506025436 | -5 | 0 | 0.0 | 0.0 | 0.00 | 0.03 | 0.00 | 88 | 1011.9 |
| 20260506024746 | -5 | 0 | 0.0 | 0.0 | 0.00 | 0.03 | 0.00 | 88 | 1011.7 |
| 20260506023849 | -5 | 0 | 0.0 | 0.0 | 0.00 | 0.03 | 0.00 | 88 | 1011.9 |
| 20260506022736 | -5 | 0 | 0.0 | 0.0 | 0.00 | 0.03 | 0.00 | 87 | 1011.9 |
| 20260506021836 | -4 | 0 | 0.0 | 0.0 | 0.00 | 0.03 | 0.00 | 87 | 1011.8 |
| 20260506020935 | -4 | 112 | 0.0 | 3.2 | 0.00 | 0.03 | 0.00 | 86 | 1011.6 |
| 20260506020036 | -3 | 102 | 1.6 | 6.4 | 0.00 | 0.03 | 0.00 | 88 | 1011.7 |
| 20260506015135 | -4 | 101 | 0.0 | 3.2 | 0.00 | 0.03 | 0.00 | 88 | 1011.7 |
| 20260506014236 | -5 | 0 | 0.0 | 0.0 | 0.00 | 0.03 | 0.00 | 88 | 1011.6 |
| 20260506013336 | -5 | 0 | 0.0 | 0.0 | 0.00 | 0.03 | 0.00 | 88 | 1011.5 |
| 20260506012436 | -5 | 0 | 0.0 | 0.0 | 0.00 | 0.03 | 0.00 | 87 | 1011.6 |
| 20260506011536 | -5 | 89 | 0.0 | 1.6 | 0.00 | 0.03 | 0.00 | 87 | 1011.4 |
| 20260506010635 | -4 | 87 | 0.0 | 1.6 | 0.00 | 0.03 | 0.00 | 86 | 1011.2 |
| 20260506005736 | -4 | 0 | 0.0 | 0.0 | 0.00 | 0.03 | 0.00 | 85 | 1011.2 |
| 20260506004835 | -3 | 88 | 0.0 | 1.6 | 0.00 | 0.03 | 0.00 | 84 | 1011.1 |
| 20260506004149 | -3 | 87 | 1.6 | 1.6 | 0.00 | 0.03 | 0.00 | 86 | 1011.2 |
| 20260506003036 | -3 | 92 | 0.0 | 1.6 | 0.00 | 0.03 | 0.00 | 84 | 1011.2 |
| 20260506002136 | -3 | 104 | 0.0 | 1.6 | 0.00 | 0.03 | 0.00 | 84 | 1011.0 |
| 20260506001446 | -3 | 0 | 0.0 | 0.0 | 0.00 | 0.03 | 0.00 | 85 | 1010.8 |
| 20260506000336 | -3 | 123 | 0.0 | 3.2 | 0.00 | 0.03 | 0.00 | 83 | 1010.9 |
| 20260505235436 | -2 | 97 | 3.2 | 4.8 | 0.00 | 0.03 | 0.00 | 81 | 1010.7 |
| 20260505234748 | -2 | 95 | 3.2 | 4.8 | 0.00 | 0.03 | 0.00 | 83 | 1010.7 |
| 20260505233636 | -2 | 91 | 1.6 | 4.8 | 0.00 | 0.03 | 0.00 | 84 | 1010.8 |
| 20260505232736 | -2 | 83 | 3.2 | 4.8 | 0.00 | 0.03 | 0.00 | 84 | 1010.7 |
| 20260505231836 | -2 | 82 | 1.6 | 4.8 | 0.00 | 0.03 | 0.00 | 85 | 1010.8 |
| 20260505230936 | -3 | 85 | 1.6 | 3.2 | 0.00 | 0.03 | 0.00 | 84 | 1010.6 |
| 20260505230036 | -2 | 99 | 1.6 | 3.2 | 0.00 | 0.03 | 0.00 | 82 | 1010.5 |
| 20260505225136 | -2 | 94 | 1.6 | 4.8 | 0.00 | 0.03 | 0.00 | 83 | 1010.4 |
| 20260505224236 | -2 | 86 | 1.6 | 4.8 | 0.00 | 0.03 | 0.00 | 83 | 1010.4 |
| 20260505223335 | -2 | 0 | 0.0 | 0.0 | 0.00 | 0.03 | 0.00 | 83 | 1010.4 |
| 20260505222436 | -2 | 94 | 0.0 | 1.6 | 0.00 | 0.03 | 0.00 | 83 | 1010.3 |
| 20260505221535 | -2 | 0 | 0.0 | 0.0 | 0.00 | 0.03 | 0.00 | 82 | 1010.4 |
| 20260505220636 | -2 | 0 | 0.0 | 0.0 | 0.00 | 0.03 | 0.00 | 83 | 1010.2 |
| 20260505215736 | -2 | 93 | 0.0 | 1.6 | 0.00 | 0.03 | 0.03 | 83 | 1010.3 |
| 20260505214835 | -2 | 93 | 0.0 | 1.6 | 0.00 | 0.03 | 0.03 | 81 | 1010.3 |
| 20260505213936 | -1 | 99 | 0.0 | 1.6 | 0.00 | 0.03 | 0.03 | 79 | 1010.3 |
| 20260505213248 | -1 | 106 | 1.6 | 4.8 | 0.00 | 0.05 | 0.03 | 79 | 1010.1 |
| 20260505212136 | -1 | 94 | 1.6 | 4.8 | 0.00 | 0.05 | 0.03 | 77 | 1010.1 |
| 20260505211236 | -1 | 86 | 1.6 | 4.8 | 0.00 | 0.05 | 0.03 | 79 | 1010.0 |
| 20260505210336 | -1 | 72 | 0.0 | 3.2 | 0.00 | 0.05 | 0.03 | 77 | 1010.0 |
| 20260505205435 | 0 | 82 | 1.6 | 3.2 | 0.00 | 0.08 | 0.03 | 76 | 1009.9 |
| 20260505204536 | 0 | 88 | 1.6 | 4.8 | 0.00 | 0.10 | 0.03 | 75 | 1009.8 |
| 20260505203847 | 0 | 87 | 1.6 | 3.2 | 0.00 | 0.10 | 0.03 | 76 | 1009.8 |
| 20260505202950 | 0 | 70 | 1.6 | 3.2 | 0.00 | 0.13 | 0.03 | 76 | 1009.8 |
| 20260505201836 | 0 | 66 | 0.0 | 3.2 | 0.00 | 0.15 | 0.03 | 76 | 1009.6 |
| 20260505200936 | 0 | 0 | 0.0 | 0.0 | 0.00 | 0.18 | 0.03 | 76 | 1009.5 |
| 20260505200036 | 0 | 64 | 0.0 | 1.6 | 0.00 | 0.23 | 0.03 | 74 | 1009.5 |
| 20260505195135 | 0 | 62 | 0.0 | 3.2 | 0.00 | 0.25 | 0.03 | 72 | 1009.3 |
| 20260505194236 | 1 | 0 | 0.0 | 0.0 | 0.00 | 0.25 | 0.03 | 73 | 1009.3 |
| 20260505193336 | 1 | 83 | 0.0 | 3.2 | 0.00 | 0.25 | 0.03 | 71 | 1009.1 |
| 20260505192435 | 1 | 72 | 0.0 | 1.6 | 0.00 | 0.25 | 0.03 | 69 | 1009.1 |
| 20260505191536 | 2 | 71 | 0.0 | 3.2 | 0.00 | 0.25 | 0.03 | 66 | 1008.8 |
| 20260505190846 | 2 | 82 | 0.0 | 3.2 | 0.00 | 0.25 | 0.03 | 66 | 1008.9 |
| 20260505185736 | 2 | 98 | 0.0 | 6.4 | 0.00 | 0.25 | 0.03 | 66 | 1008.8 |
| 20260505184835 | 3 | 72 | 1.6 | 4.8 | 0.00 | 0.25 | 0.03 | 66 | 1008.8 |
| 20260505183936 | 3 | 63 | 1.6 | 4.8 | 0.00 | 0.25 | 0.03 | 66 | 1008.7 |
| 20260505183036 | 3 | 69 | 1.6 | 4.8 | 0.00 | 0.25 | 0.03 | 66 | 1008.7 |
| 20260505182136 | 3 | 73 | 1.6 | 6.4 | 0.00 | 0.25 | 0.03 | 64 | 1008.5 |
| 20260505181445 | 3 | 66 | 3.2 | 6.4 | 0.00 | 0.25 | 0.03 | 63 | 1008.5 |
| 20260505180336 | 3 | 58 | 1.6 | 9.7 | 0.00 | 0.25 | 0.03 | 62 | 1008.4 |
| 20260505175435 | 3 | 69 | 3.2 | 8.0 | 0.00 | 0.25 | 0.03 | 62 | 1008.4 |
| 20260505174536 | 3 | 95 | 3.2 | 9.7 | 0.00 | 0.25 | 0.03 | 61 | 1008.5 |
| 20260505173635 | 4 | 99 | 1.6 | 3.2 | 0.00 | 0.25 | 0.03 | 60 | 1008.5 |
| 20260505172736 | 4 | 114 | 1.6 | 6.4 | 0.00 | 0.25 | 0.03 | 60 | 1008.4 |
| 20260505171836 | 4 | 127 | 3.2 | 9.7 | 0.00 | 0.25 | 0.03 | 61 | 1008.3 |
| 20260505171146 | 4 | 115 | 4.8 | 16.1 | 0.00 | 0.25 | 0.03 | 60 | 1008.4 |
| 20260505170036 | 5 | 123 | 8.0 | 17.7 | 0.00 | 0.25 | 0.03 | 57 | 1008.5 |
| 20260505165346 | 5 | 122 | 8.0 | 24.1 | 0.00 | 0.25 | 0.03 | 54 | 1008.5 |
| 20260505164236 | 6 | 113 | 6.4 | 22.5 | 0.00 | 0.25 | 0.03 | 53 | 1008.4 |
| 20260505163335 | 7 | 112 | 4.8 | 19.3 | 0.00 | 0.25 | 0.03 | 50 | 1008.2 |
| 20260505162435 | 6 | 105 | 4.8 | 12.9 | 0.00 | 0.25 | 0.03 | 46 | 1008.0 |
| 20260505161536 | 7 | 91 | 6.4 | 14.5 | 0.00 | 0.25 | 0.03 | 43 | 1007.8 |
| 20260505160636 | 7 | 89 | 3.2 | 11.3 | 0.00 | 0.25 | 0.03 | 41 | 1007.6 |
| 20260505153035 | 7 | 113 | 4.8 | 14.5 | 0.00 | 0.25 | 0.03 | 43 | 1007.7 |
| 20260505152136 | 6 | 115 | 6.4 | 22.5 | 0.00 | 0.25 | 0.03 | 44 | 1007.7 |
| 20260505151236 | 6 | 118 | 6.4 | 17.7 | 0.00 | 0.25 | 0.03 | 45 | 1007.9 |
| 20260505150335 | 7 | 125 | 6.4 | 17.7 | 0.00 | 0.25 | 0.03 | 41 | 1007.7 |
| 20260505140245 | 7 | 217 | 6.4 | 14.5 | 0.00 | 0.25 | 0.03 | 47 | 1007.0 |
| 20260505124836 | 7 | 73 | 4.8 | 14.5 | 0.03 | 0.25 | 0.03 | 41 | 1007.2 |
| 20260505123935 | 7 | 89 | 4.8 | 11.3 | 0.03 | 0.25 | 0.03 | 40 | 1007.3 |
| 20260505123035 | 6 | 92 | 4.8 | 20.9 | 0.03 | 0.25 | 0.03 | 46 | 1007.2 |
| 20260505122136 | 6 | 79 | 11.3 | 30.6 | 0.03 | 0.25 | 0.03 | 45 | 1007.3 |
| 20260505121235 | 6 | 98 | 4.8 | 27.4 | 0.03 | 0.25 | 0.03 | 48 | 1007.1 |
| 20260505120335 | 6 | 110 | 4.8 | 12.9 | 0.00 | 0.23 | 0.00 | 54 | 1007.1 |
| 20260505115648 | 6 | 141 | 4.8 | 16.1 | 0.00 | 0.23 | 0.00 | 54 | 1007.3 |
| 20260505114535 | 7 | 108 | 3.2 | 11.3 | 0.00 | 0.23 | 0.00 | 47 | 1006.8 |
| 20260505113636 | 7 | 109 | 8.0 | 19.3 | 0.00 | 0.23 | 0.00 | 48 | 1007.1 |
| 20260505112736 | 8 | 126 | 8.0 | 16.1 | 0.00 | 0.23 | 0.00 | 38 | 1006.7 |
| 20260505111836 | 9 | 118 | 4.8 | 11.3 | 0.00 | 0.23 | 0.00 | 40 | 1006.6 |
| 20260505110936 | 8 | 97 | 9.7 | 29.0 | 0.00 | 0.23 | 0.00 | 33 | 1006.7 |
| 20260505101536 | 7 | 94 | 4.8 | 27.4 | 0.00 | 0.23 | 0.00 | 45 | 1006.5 |
| 20260505100636 | 7 | 87 | 6.4 | 19.3 | 0.00 | 0.23 | 0.00 | 45 | 1006.5 |
| 20260505095736 | 7 | 90 | 6.4 | 22.5 | 0.00 | 0.23 | 0.00 | 45 | 1006.6 |
| 20260505094835 | 7 | 86 | 8.0 | 22.5 | 0.00 | 0.23 | 0.00 | 48 | 1006.6 |
| 20260505093936 | 7 | 84 | 6.4 | 16.1 | 0.00 | 0.23 | 0.00 | 49 | 1006.5 |
| 20260505093036 | 7 | 87 | 8.0 | 27.4 | 0.00 | 0.23 | 0.00 | 51 | 1006.6 |
| 20260505092348 | 6 | 88 | 4.8 | 22.5 | 0.00 | 0.23 | 0.00 | 51 | 1006.7 |
| 20260505091445 | 6 | 97 | 4.8 | 14.5 | 0.00 | 0.23 | 0.00 | 50 | 1006.6 |
| 20260505090335 | 6 | 105 | 4.8 | 14.5 | 0.00 | 0.23 | 0.00 | 49 | 1006.7 |
| 20260505085436 | 6 | 108 | 4.8 | 17.7 | 0.00 | 0.23 | 0.00 | 48 | 1006.5 |
| 20260505084535 | 6 | 105 | 4.8 | 12.9 | 0.00 | 0.23 | 0.00 | 48 | 1006.5 |
| 20260505083636 | 6 | 94 | 3.2 | 12.9 | 0.00 | 0.23 | 0.00 | 49 | 1006.4 |
| 20260505082736 | 6 | 103 | 3.2 | 14.5 | 0.00 | 0.23 | 0.00 | 50 | 1006.2 |
| 20260505081836 | 6 | 133 | 3.2 | 11.3 | 0.00 | 0.23 | 0.00 | 49 | 1006.0 |
| 20260505080935 | 6 | 130 | 4.8 | 16.1 | 0.00 | 0.23 | 0.00 | 46 | 1005.9 |
| 20260505080036 | 7 | 109 | 6.4 | 17.7 | 0.00 | 0.23 | 0.00 | 46 | 1005.9 |
| 20260505075136 | 6 | 105 | 6.4 | 17.7 | 0.00 | 0.23 | 0.00 | 46 | 1005.9 |
| 20260505074236 | 6 | 109 | 4.8 | 17.7 | 0.00 | 0.23 | 0.00 | 50 | 1005.9 |
| 20260505073335 | 6 | 114 | 6.4 | 17.7 | 0.00 | 0.23 | 0.00 | 53 | 1005.8 |
| 20260505072436 | 6 | 102 | 4.8 | 16.1 | 0.00 | 0.23 | 0.00 | 51 | 1005.8 |
| 20260505071536 | 5 | 127 | 6.4 | 16.1 | 0.00 | 0.23 | 0.00 | 53 | 1005.7 |
| 20260505070636 | 5 | 115 | 4.8 | 20.9 | 0.00 | 0.23 | 0.00 | 56 | 1005.5 |
| 20260505065736 | 5 | 116 | 6.4 | 19.3 | 0.00 | 0.23 | 0.00 | 56 | 1005.5 |
| 20260505064835 | 5 | 117 | 6.4 | 19.3 | 0.00 | 0.23 | 0.00 | 58 | 1005.6 |
| 20260505064145 | 5 | 113 | 6.4 | 17.7 | 0.00 | 0.23 | 0.00 | 59 | 1005.5 |
| 20260505063036 | 5 | 113 | 4.8 | 14.5 | 0.00 | 0.23 | 0.00 | 60 | 1005.5 |
| 20260505062136 | 4 | 137 | 6.4 | 16.1 | 0.00 | 0.23 | 0.00 | 61 | 1005.4 |
| 20260505061235 | 4 | 108 | 4.8 | 14.5 | 0.00 | 0.23 | 0.00 | 65 | 1005.4 |
| 20260505060336 | 3 | 97 | 3.2 | 16.1 | 0.00 | 0.23 | 0.00 | 68 | 1005.3 |
| 20260505055436 | 4 | 99 | 1.6 | 8.0 | 0.00 | 0.23 | 0.00 | 69 | 1005.2 |
| 20260505054536 | 3 | 65 | 1.6 | 6.4 | 0.00 | 0.23 | 0.00 | 71 | 1005.2 |
| 20260505053636 | 3 | 88 | 3.2 | 11.3 | 0.00 | 0.23 | 0.00 | 72 | 1005.0 |
| 20260505052735 | 3 | 71 | 1.6 | 9.7 | 0.00 | 0.23 | 0.00 | 73 | 1005.0 |
| 20260505051836 | 3 | 74 | 3.2 | 8.0 | 0.00 | 0.23 | 0.00 | 74 | 1004.9 |
| 20260505050935 | 2 | 90 | 1.6 | 6.4 | 0.00 | 0.23 | 0.00 | 75 | 1004.7 |
| 20260505041536 | 1 | 109 | 1.6 | 8.0 | 0.00 | 0.23 | 0.00 | 81 | 1004.4 |
| 20260505040845 | 1 | 106 | 1.6 | 8.0 | 0.00 | 0.23 | 0.00 | 81 | 1004.4 |